Regional Weather Roundup
Issued by NWS

Home | Current Version | Previous Version | Text Only | Print | Product List | Glossary Off
Versions: 1 2 3 4 5 6 7 8 9 10 11 12 13 14 15 16 17 18 19 20 21 22 23 24 25 26 27

000
ASUS45 KTFX 211810
RWRMT
MONTANA REGIONAL WEATHER ROUNDUP
NATIONAL WEATHER SERVICE GREAT FALLS MT
1200 PM MDT SUN MAY 21 2017

NOTE: "FAIR" INDICATES FEW OR NO CLOUDS BELOW 12000 FEET WITH NO
SIGNIFICANT WEATHER AND/OR OBSTRUCTIONS TO VISIBILITY.

MTZ001>007-043-211900-
WEST OF THE DIVIDE

CITY           SKY/WX    TMP DP  RH WIND       PRES   REMARKS
KALISPELL      SUNNY     62  47  57 S8        30.25F
MISSOULA       SUNNY     60  46  59 VRB5      30.29F
BUTTE          PTSUNNY   56  31  38 CALM      30.31F
MULLAN PASS    MOSUNNY   55  37  50 VRB3      30.34S
ANACONDA         N/A     57  34  41 NE5       30.30S
DEER LODGE       N/A     57  43  58 NE5       30.32F
EUREKA           N/A     63  45  51 CALM      30.25F
HAMILTON         N/A     59  43  55 N5        30.29F
LIBBY            N/A     61  48  63 CALM      30.24F
PLAINS           N/A     62  49  62 CALM      30.25
RONAN            N/A     62  47  58 SW2       30.30F
$$

MTZ008-052>055-211900-
SOUTHWEST MONTANA

CITY           SKY/WX    TMP DP  RH WIND       PRES   REMARKS
BOZEMAN        SUNNY     59  44  57 VRB3      30.29F
DILLON         SUNNY     58  36  43 MISG      30.29S
W YELLOWSTONE  MOSUNNY   50  32  50 NW7       30.31S
ENNIS          MOSUNNY   55  32  41 N8G20     30.33F
THREE FORKS      N/A     60  42  51 CALM      30.25S
$$

MTZ009-010-012-014-046-048-049-054-211900-
EAST SLOPES AND CENTRAL MONTANA

CITY           SKY/WX    TMP DP  RH WIND       PRES   REMARKS
CUT BANK       MOSUNNY   67  31  26 NW8G16    30.20S
GREAT FALLS    MOSUNNY   64  38  38 CALM      30.22F
HELENA         SUNNY     61  46  57 VRB3      30.25F
AUGUSTA          N/A     62  30  29 N13       30.24S
BOWMANS CRNR     N/A     61  35  38 NW3       30.23F
CHOTEAU          N/A     66  30  26 CALM      30.24F
FAIRFIELD      PTSUNNY   63  31  30 W3        30.22S
POWER            N/A     65  32  28 W7        30.22S
RAYNESFORD       N/A     60  35  40 NW5       30.24S
ULM              N/A     63  35  34 NW6       30.23F
$$

MTZ011-013-016-021-045-047-050-051-211900-
NORTH CENTRAL MONTANA

CITY           SKY/WX    TMP DP  RH WIND       PRES   REMARKS
HAVRE          PTSUNNY   68  29  23 NW14      30.15F
LEWISTOWN      MOSUNNY   60  39  45 NW9       30.23S
N BAR RANCH    PTSUNNY   59  32  36 NW17      30.24S
CHINOOK          N/A     70  39  32 SW12      30.13F
DENTON         PTSUNNY   62  35  36 N15       30.18S
GEYSER         PTSUNNY   59  36  43 W14       30.23S
JUDITH GAP       N/A     59  33  37 N14G28    30.23S
STANFORD       PTSUNNY   59  37  44 NW12G17   30.24S
WINIFRED         N/A     62  38  39 NW15G22   30.20S
$$

MTZ017>020-022>027-061-062-211900-
NORTHEAST MONTANA

CITY           SKY/WX    TMP DP  RH WIND       PRES   REMARKS
GLASGOW        MOSUNNY   71  32  23 NW18G36   30.07F
JORDAN           N/A     70  35  27 NW16G28   30.11F
SIDNEY         CLOUDY    67  37  33 NW13G21   30.00F
WOLF POINT     PTSUNNY   71  33  24 N18       30.02F
MALTA          MOSUNNY   72  32  23 N14       30.09F
PLENTYWOOD       N/A     66  32  28 N21G26    29.98F
POPLAR           N/A     68  34  28 NW20G30   30.01F
SCOBEY           N/A     68  33  27 N21       30.02
$$

MTZ028>42-056>058-211900-
SOUTHCENTRAL AND SOUTHEAST MONTANA

CITY           SKY/WX    TMP DP  RH WIND       PRES   REMARKS
BAKER          MOSUNNY   60  40  47 W13G21    30.06F
BILLINGS       PTSUNNY   60  36  40 NW20G28   30.21R
LIVINGSTON     SUNNY     63  37  38 NW10      30.25F
MILES CITY     PTSUNNY   68  35  29 N20G28    30.08F
BIG TIMBER     MOSUNNY   59  36  41 W5        30.28S
EKALAKA          N/A     59  43  55 W8        30.06F
FORSYTH          N/A     64  36  34 NW15G24   30.11F
LAUREL           N/A     63  33  32 NW10      30.18F
ROUNDUP          N/A     63  30  28 N13       30.09S
$$

REGIONAL REPORTS...DAKOTAS

CITY           SKY/WX    TMP DP  RH WIND       PRES   REMARKS
WILLISTON      MOSUNNY   71  33  24 W8        29.99F
MINOT          SUNNY     67  32  27 NW9       29.95F
DICKINSON      SUNNY     65  26  23 NW14G22   29.99S
BEACH            N/A     61  37  41 NW23G32   30.08R
TIOGA          PTSUNNY   66  25  20 NW16      29.99F
WATFORD CITY     N/A     64  32  29 W12       29.99F
BISMARCK       SUNNY     64  35  34 W10       29.98F
GRAND FORKS    CLOUDY    48  44  86 NW12      29.91F
FARGO          CLOUDY    46  40  79 NW21      29.92R
BUFFALO SD       N/A     62  38  40 W25G32    30.00F
RAPID CITY     MOSUNNY   64  34  32 NW14G21   30.09S
$$

REGIONAL REPORTS...WYOMING/IDAHO/WASHINGTON

CITY           SKY/WX    TMP DP  RH WIND       PRES   REMARKS
GILLETTE       PTSUNNY   57  41  55 NW17G24   30.15F
SHERIDAN       MOSUNNY   61  40  45 NW18      30.20S
BUFFALO WY     CLOUDY    60  36  40 NW25G38   30.20F
CODY           SUNNY     58  35  42 N12       30.25S
YELLOWSTONE LA   N/A     47  25  42 MISG      30.34R
IDAHO FALLS    MOSUNNY   62  36  37 NE10      30.24S
SALMON         SUNNY     61  41  48 W3        30.25F
BOISE          SUNNY     67  45  45 CALM      30.22S
SPOKANE        MOSUNNY   67  48  50 VRB5      30.26S
$$

REGIONAL REPORTS...ALBERTA

CITY           SKY/WX    TMP DP  RH WIND       PRES   REMARKS
EDMONTON       SUNNY     70  34  26 NW7G17    30.12S
CALGARY        MOSUNNY   68  27  21 NW16G24   30.19F
LETHBRIDGE     MOSUNNY   70  37  30 NW10G17   30.17S
MEDICINE HAT   PTSUNNY   70  34  26 W15       30.11F
WATERTON GATE    N/A     68  28  22 W10         N/A
CARDSTON         N/A     64  36  34 NW8         N/A
MILK RIVER       N/A     66  36  32 NW10G18     N/A
$$

REGIONAL REPORTS...SASKATCHEWAN

CITY           SKY/WX    TMP DP  RH WIND       PRES   REMARKS
SWIFT CURRENT  MOSUNNY   66  36  32 N7G17     30.08F
REGINA         PTSUNNY   68  30  24 N14G26    29.99F
SASKATOON      PTSUNNY   66  37  34 N15G24    30.06S
CYPRESS HILLS    N/A     63  27  25 NW9G20      N/A
ROCKGLEN         N/A     64  34  32 N17G25      N/A
ASSINIBOIA       N/A     70  34  26 W9          N/A
$$




USA.gov is the U.S. government's official web portal to all federal, state and local government web resources and services.